Theta_e
313 314 320 320 321 321 323 324 324 328 327 323 320 322 322 325 330 338 355 356 355 357 360 352 349 342 339 341 342 342 344 344 335 332 329 327 328 333 339 344 347 344 342 341 341 342 337 324 324
314 319 320 319 318 322 324 320 324 324 318 319 320 320 321 326 341 347 356 357 356 358 360 356 346 340 339 343 343 343 345 342 334 332 328 328 330 336 338 341 346 347 345 344 344 341 328 324 325
314 323 321 320 317 320 322 318 318 317 318 317 319 319 320 330 341 350 355 357 357 358 358 356 343 339 340 345 344 345 345 342 338 337 332 329 334 337 337 339 347 348 346 344 340 335 325 324 326
317 321 320 319 316 316 316 317 316 317 318 318 320 320 321 345 340 348 356 358 357 357 357 355 342 338 338 343 345 345 345 343 343 342 337 331 334 337 338 340 347 347 345 343 333 328 325 327 328
315 317 318 319 318 318 316 316 316 318 320 321 319 320 322 338 331 338 356 358 357 356 355 354 342 337 336 339 342 344 344 344 344 343 339 334 333 337 339 342 346 346 342 338 329 326 326 328 337
319 317 317 316 315 315 316 319 317 320 319 320 321 321 322 340 321 321 346 358 357 356 354 355 342 336 334 334 338 342 344 344 344 343 341 336 333 336 339 341 344 341 337 334 327 326 326 327 332
319 318 317 316 316 317 318 318 319 318 319 319 319 321 322 322 319 321 346 357 358 356 355 355 351 338 332 330 331 336 341 342 343 342 341 337 333 335 339 341 340 338 336 330 326 325 325 327 329
319 319 319 318 319 318 319 318 317 318 318 318 319 321 320 319 318 331 351 357 358 357 355 354 353 350 346 337 329 330 332 336 339 340 340 337 332 335 340 340 339 338 336 332 332 329 326 325 326
315 318 319 318 320 319 318 317 317 317 318 318 318 318 318 318 318 331 346 356 358 358 356 353 352 350 348 345 341 329 330 332 335 339 338 336 342 342 343 345 342 338 336 334 334 333 330 328 326
316 317 317 317 316 316 315 315 315 315 317 317 317 318 317 318 318 319 330 346 356 357 357 354 352 351 349 346 346 344 344 344 344 344 343 342 344 345 347 347 340 338 335 335 334 334 332 326 336
315 318 316 314 315 315 314 314 315 315 315 316 316 317 318 318 319 320 320 336 346 356 356 355 354 353 350 346 346 344 344 344 344 345 345 344 345 346 347 347 348 347 340 344 338 339 341 338 334
311 315 314 313 313 314 313 314 314 313 313 314 315 317 318 318 320 320 319 320 342 355 356 354 353 354 351 347 347 344 344 344 344 344 346 345 343 344 345 345 346 348 345 345 345 343 343 330 324
314 313 313 313 314 314 313 312 312 312 312 313 314 316 316 316 318 319 318 322 338 350 356 355 353 352 352 350 348 345 344 344 343 343 343 341 341 343 343 344 345 345 345 345 344 344 341 334 332
313 313 312 313 313 312 311 311 311 311 311 312 314 315 315 314 315 316 317 319 323 348 355 355 353 353 353 350 349 347 346 344 344 343 342 342 340 342 342 343 343 344 339 345 344 343 340 335 335
312 311 311 310 310 310 310 310 310 310 311 312 313 314 314 313 313 315 316 318 319 324 353 355 354 355 353 352 350 347 346 344 344 344 344 342 341 341 341 341 343 343 338 343 341 339 336 335 334
309 310 310 310 310 310 309 311 311 311 311 311 312 313 313 312 313 313 315 314 317 319 342 355 354 354 353 352 351 348 346 345 344 344 344 342 338 339 338 341 342 342 342 342 340 338 336 334 336
309 310 310 309 309 309 310 311 311 311 311 312 312 312 311 311 312 313 313 312 313 317 318 351 354 353 353 351 351 349 348 346 345 344 344 343 339 338 338 338 340 341 341 340 339 339 336 335 338
311 311 310 311 311 311 311 312 312 312 311 312 312 311 311 311 312 312 312 312 314 316 317 323 353 353 352 351 350 349 349 347 346 345 344 343 341 340 337 338 337 333 339 339 339 340 338 335 340
310 310 311 312 311 311 313 313 312 312 312 312 312 311 311 311 312 310 314 318 317 317 319 316 352 353 352 350 350 350 350 348 347 346 345 344 339 339 337 339 337 329 334 337 339 341 341 336 343
311 312 313 311 311 312 313 313 312 311 313 316 320 320 320 319 320 321 320 320 321 320 320 321 347 352 351 350 349 350 349 348 348 347 345 345 343 339 338 338 337 328 333 338 342 342 339 338 342
312 312 312 313 313 313 312 313 312 314 317 317 316 316 316 316 318 318 318 319 320 321 321 318 347 352 351 350 349 348 348 347 347 346 345 345 344 341 340 340 338 330 333 340 343 343 340 341 343
313 311 312 313 314 315 312 314 313 316 317 317 315 314 313 314 313 314 315 316 317 322 323 320 337 351 351 350 349 348 347 347 346 345 345 345 344 342 341 341 340 335 339 342 343 342 341 341 344
312 312 313 313 314 314 313 314 313 316 318 319 317 314 312 311 312 311 312 312 313 320 321 323 329 350 351 350 348 348 348 348 347 345 344 344 343 343 341 341 341 339 337 342 344 343 342 343 344
311 313 312 310 312 317 312 314 314 318 319 316 313 312 310 309 310 310 309 311 313 318 319 322 328 346 350 350 348 347 347 347 345 344 343 343 342 343 341 340 341 340 339 338 342 345 342 343 343
313 317 322 318 317 316 312 315 316 318 315 313 311 310 309 308 308 309 310 310 310 314 316 318 327 340 346 349 348 348 347 347 345 343 342 341 342 342 342 341 341 341 340 338 340 344 343 343 343
314 316 319 321 320 318 315 318 316 318 313 311 311 310 309 308 307 308 308 307 308 309 311 314 317 321 340 346 347 347 348 347 345 343 342 341 341 342 341 341 341 341 341 339 339 343 344 343 343
315 317 316 318 317 318 316 315 316 317 314 312 312 311 310 308 307 307 307 306 305 306 308 310 314 314 316 327 345 346 344 345 344 342 341 341 342 342 342 340 341 340 340 339 338 341 344 344 344
314 315 319 318 320 319 316 316 319 319 314 312 311 311 309 308 307 307 307 306 305 305 306 308 311 313 312 315 327 343 344 342 341 341 340 341 341 342 342 342 341 342 342 342 340 340 344 345 345
315 318 317 317 318 320 319 317 318 315 313 312 310 309 308 307 306 306 306 305 305 305 304 306 308 311 312 312 314 326 342 342 342 341 340 340 341 342 343 343 343 343 343 343 343 343 343 343 344
313 315 316 318 318 318 319 317 315 314 312 311 310 309 307 307 306 305 305 304 304 305 304 305 306 308 311 312 313 316 331 344 343 343 342 341 341 342 343 343 343 343 343 344 344 343 343 343 343
Wind_Speed
2 2 2 0 3 2 3 1 2 1 2 4 9 7 9 10 9 11 7 15 12 29 29 37 39 37 35 36 40 41 39 37 36 35 33 33 33 33 33 29 25 23 22 20 19 16 15 15 16
3 4 2 1 3 6 4 1 4 4 11 10 8 11 7 3 5 11 9 5 17 29 27 29 39 38 36 37 41 41 40 38 37 35 33 33 34 33 31 29 25 23 21 19 18 16 15 16 15
5 3 1 1 2 9 5 2 5 10 10 11 8 9 7 9 14 14 15 6 17 29 26 26 38 39 37 38 40 41 40 38 37 34 33 33 34 33 31 28 25 22 21 19 17 16 16 15 15
2 2 3 2 8 2 4 4 8 14 8 10 13 9 5 13 10 18 16 8 17 24 27 28 39 37 39 38 39 39 39 38 36 34 33 34 34 33 30 29 25 22 20 18 17 16 16 15 14
4 1 2 3 4 3 4 9 8 8 8 12 14 12 14 4 18 22 12 7 17 21 26 28 38 38 38 38 37 38 38 37 36 34 33 33 33 33 31 28 24 21 19 18 16 15 15 14 14
2 0 3 5 2 3 2 15 7 12 12 17 15 22 10 1 33 32 15 7 15 20 19 26 37 38 38 37 37 37 37 36 35 34 32 32 32 32 30 28 24 21 19 18 16 15 14 14 12
3 1 1 1 1 3 3 16 12 13 15 10 17 15 11 15 36 35 13 8 13 18 21 23 27 34 36 36 37 37 36 36 34 33 32 31 32 32 30 28 24 21 20 18 16 15 14 13 12
3 2 2 1 2 4 7 12 10 15 10 13 13 5 15 28 38 28 9 5 11 17 22 23 24 25 26 30 35 35 35 34 33 32 31 31 31 31 29 26 23 21 20 18 16 14 13 12 11
1 2 2 1 3 7 13 13 12 10 13 14 10 18 24 29 33 23 14 6 11 17 23 25 25 23 23 23 27 33 33 33 32 31 31 31 24 26 26 23 23 22 20 17 15 13 12 12 11
2 1 2 0 6 9 13 15 16 13 17 16 18 21 27 26 28 25 20 16 15 18 23 26 27 25 23 21 21 23 24 24 26 26 27 24 23 23 22 21 23 22 20 17 14 12 11 10 7
2 1 0 3 5 10 14 17 12 14 14 17 21 21 21 23 21 23 22 21 21 19 21 26 26 26 26 23 23 22 22 22 23 24 26 23 22 22 21 18 18 17 19 13 13 11 8 8 7
1 1 2 4 9 10 14 12 13 11 16 16 18 16 17 21 16 17 21 24 21 21 26 27 25 25 27 25 25 24 23 22 22 24 25 23 22 21 20 19 19 17 16 14 12 10 9 9 8
2 2 3 8 11 8 12 13 13 14 15 15 15 15 18 19 21 20 18 21 21 25 27 31 29 29 30 26 25 24 24 25 24 23 25 25 24 22 20 20 19 17 15 14 12 10 8 7 7
2 6 8 6 6 10 10 17 9 11 18 18 17 17 17 19 21 24 21 17 18 24 29 32 32 32 31 30 27 25 24 23 24 23 23 24 23 23 22 22 19 17 19 14 11 10 8 7 6
4 8 7 5 8 8 8 14 14 16 16 20 18 18 17 20 25 24 22 21 18 21 30 34 34 33 35 33 30 29 27 25 25 24 24 25 24 23 22 22 20 19 19 15 13 11 9 7 5
2 1 9 6 14 7 6 17 18 18 19 21 21 19 19 20 23 30 28 23 22 19 23 32 35 36 37 36 34 30 29 29 27 25 25 28 27 24 23 20 21 18 16 14 12 11 9 6 4
2 10 16 10 6 11 9 20 16 21 20 21 21 21 20 22 24 29 30 27 26 24 19 29 36 37 38 38 36 34 31 32 29 27 26 27 28 27 24 20 19 20 16 15 13 11 9 7 5
15 15 8 15 11 16 17 22 21 20 20 21 22 20 21 21 23 30 32 34 30 24 22 24 36 40 38 35 33 33 32 31 29 28 28 28 28 27 27 22 21 24 18 15 13 12 9 7 7
9 10 14 15 14 15 21 23 23 17 15 16 18 19 20 21 22 28 31 30 26 22 18 21 34 38 36 35 34 33 34 33 30 29 26 27 34 32 32 23 23 25 22 20 17 13 11 9 10
5 11 14 9 7 16 18 27 18 8 9 11 15 17 18 19 17 19 28 30 27 25 23 21 34 37 41 40 37 33 32 33 33 28 29 29 32 37 37 30 24 27 23 20 16 16 13 10 14
7 8 13 18 20 16 10 13 1 3 8 12 15 16 17 18 21 21 25 29 31 29 25 21 28 38 41 40 34 30 26 22 25 30 32 32 32 34 34 31 27 28 25 22 20 19 18 15 15
10 4 14 19 15 8 7 8 7 6 9 14 16 19 19 21 21 20 21 30 32 32 28 26 22 34 37 35 33 38 35 29 34 30 31 31 30 32 33 31 30 30 24 22 23 22 20 17 15
7 14 16 16 11 8 1 6 4 9 8 14 18 20 20 21 22 23 23 31 32 31 30 27 19 29 30 33 33 38 35 33 24 27 28 31 31 33 31 32 33 34 30 26 24 22 23 20 17
11 11 2 3 2 2 2 5 11 5 6 13 19 22 21 22 24 22 27 30 33 30 31 28 14 26 31 33 39 36 35 28 26 29 27 27 28 30 35 37 37 35 30 31 28 24 25 22 19
13 10 4 3 2 3 1 11 9 1 6 10 16 19 20 20 21 23 23 24 32 34 32 31 22 14 27 30 31 33 37 33 29 30 30 25 23 27 33 39 36 35 36 31 29 27 22 23 21
4 4 2 5 4 12 15 6 3 8 4 8 13 16 18 20 21 21 22 27 28 32 32 30 28 25 13 29 35 41 36 33 31 30 29 29 28 30 31 38 35 35 34 33 30 26 24 24 24
2 2 2 4 8 6 4 5 7 6 6 14 18 21 21 21 21 22 23 27 28 28 30 28 28 26 27 16 26 28 28 27 26 23 27 29 27 25 24 32 31 32 31 32 31 29 25 24 24
3 2 3 1 5 6 6 14 9 5 11 14 19 20 21 20 21 21 20 28 30 28 28 26 25 24 24 26 14 20 27 24 23 21 22 23 23 22 23 25 28 27 27 26 28 25 23 23 22
2 3 2 2 3 4 7 6 3 1 7 13 16 18 20 20 20 20 21 30 31 30 27 25 24 24 24 24 23 13 15 26 24 27 28 29 27 27 24 23 24 25 26 23 21 20 20 23 20
8 5 3 3 3 6 7 13 8 2 7 13 16 18 19 19 20 19 22 28 31 30 29 27 22 21 22 22 23 20 8 21 27 28 27 28 27 25 24 22 23 23 22 23 24 24 21 23 23
Wind_Direction
21 114 117 37 227 271 247 264 311 255 13 346 300 288 315 291 275 288 332 203 183 176 178 178 176 176 175 174 174 171 167 166 163 161 158 160 161 162 162 158 155 155 154 151 151 150 148 146 141
106 115 71 100 234 238 241 243 219 31 336 332 345 338 335 305 313 317 331 194 177 167 176 178 178 175 175 174 174 171 169 167 165 162 161 162 163 165 166 164 159 160 159 157 156 155 153 149 145
125 80 241 112 186 240 260 146 43 339 341 355 351 330 326 352 10 354 334 207 174 166 174 178 180 177 175 174 172 172 172 169 167 165 164 165 167 168 170 170 166 165 164 163 163 161 158 154 150
127 112 94 233 234 312 324 1 331 332 344 1 346 290 354 46 19 345 338 195 183 175 170 181 180 182 178 175 175 176 176 172 171 170 168 169 171 172 173 174 171 171 170 170 168 166 160 158 156
55 93 157 222 251 286 305 328 330 18 9 345 342 324 321 59 20 3 341 204 189 184 171 178 182 185 184 179 177 178 178 177 175 174 174 174 176 175 176 177 176 177 177 174 172 169 164 163 162
104 321 193 237 235 303 354 6 351 9 349 329 337 324 311 299 351 346 329 231 195 184 187 175 185 187 188 185 183 181 181 180 180 178 179 180 180 179 178 179 181 182 180 177 175 174 171 171 174
104 152 326 291 330 292 81 357 11 348 336 336 324 304 303 325 335 337 319 240 201 193 186 182 182 190 191 190 189 187 186 185 184 184 184 184 184 183 181 181 183 185 182 180 179 177 178 180 184
103 125 133 124 41 296 349 352 332 341 332 342 348 327 317 327 331 336 331 243 210 199 196 190 182 187 188 192 194 192 190 190 189 188 187 187 187 187 186 184 186 187 185 182 185 184 184 188 196
141 140 190 301 358 311 326 329 335 320 300 317 295 311 309 317 323 324 318 264 222 217 205 198 193 188 189 189 193 196 193 191 190 189 189 188 181 187 190 185 190 189 189 189 188 188 192 195 203
46 176 147 63 311 317 318 321 320 316 315 310 304 303 307 317 321 321 309 283 243 220 213 204 198 192 191 192 189 189 186 184 182 180 184 179 181 185 189 192 192 192 192 195 196 194 198 201 202
72 68 170 293 319 333 320 311 322 314 312 323 314 308 308 313 315 316 321 294 276 232 210 209 205 195 192 193 188 190 187 186 186 182 179 182 182 185 187 191 194 195 201 203 205 204 199 205 208
266 218 277 312 317 313 308 316 301 308 307 306 307 303 306 308 307 308 313 316 271 239 217 209 209 200 192 194 192 191 188 189 188 187 183 182 182 187 190 194 196 199 200 204 202 206 204 209 216
149 307 265 298 296 298 294 294 306 295 310 312 306 302 308 309 304 303 302 313 286 247 229 213 203 204 200 195 197 194 192 190 190 190 189 186 187 189 194 196 201 202 203 202 205 210 212 212 221
315 287 297 295 296 299 302 310 303 300 313 311 307 304 306 307 304 304 300 306 308 259 239 218 205 201 200 197 196 196 194 195 192 192 194 193 190 191 195 197 203 204 209 204 203 212 215 215 222
322 310 319 273 336 305 327 295 300 309 316 315 307 309 309 308 307 300 298 295 289 283 246 223 211 204 202 203 197 197 195 195 197 196 195 196 195 197 196 197 203 208 208 205 209 217 217 218 229
337 302 334 334 311 299 328 297 307 315 317 307 305 302 300 303 300 300 301 300 294 289 255 227 215 211 202 203 200 199 199 197 201 200 197 200 201 202 200 200 206 208 206 205 209 212 214 212 208
41 315 313 319 284 311 305 297 312 306 305 302 301 299 295 297 296 295 296 305 305 292 282 235 217 211 209 200 200 196 198 200 201 201 202 204 206 204 201 203 205 208 207 208 206 208 207 203 187
307 317 304 310 309 313 300 294 305 304 299 299 305 306 301 299 292 291 302 305 302 292 276 261 219 210 205 204 200 199 198 202 204 204 203 206 207 207 207 206 204 207 205 207 205 201 200 187 173
290 286 303 304 307 321 303 302 307 313 307 318 331 330 317 306 309 307 314 313 311 304 299 267 219 210 198 197 198 196 195 193 201 208 208 209 211 210 212 208 207 208 208 207 206 199 190 181 167
313 309 314 300 303 314 308 298 312 319 6 18 6 360 355 345 336 334 331 326 325 315 310 279 221 207 198 199 204 202 199 195 201 204 210 212 213 214 216 210 207 209 206 207 203 194 182 184 184
321 301 314 300 315 293 300 292 50 51 23 22 11 356 353 347 338 337 334 332 334 327 318 307 231 207 203 201 194 198 193 192 198 204 206 212 212 213 212 210 208 211 203 204 201 197 190 177 184
315 278 299 303 322 312 14 292 308 353 352 16 7 359 352 346 340 334 334 335 337 337 327 316 246 211 204 199 189 191 191 195 204 200 202 205 212 213 211 210 210 212 204 203 202 199 196 189 184
298 310 290 299 287 289 49 253 313 347 352 2 356 353 354 348 337 334 335 332 334 341 339 330 267 213 203 192 199 197 201 209 202 196 199 198 203 210 210 210 213 214 210 210 205 199 199 201 200
320 289 307 190 216 275 56 329 295 340 356 350 349 352 354 345 335 331 334 334 338 343 349 347 310 221 204 194 195 197 208 201 192 192 196 197 198 206 211 211 213 215 213 211 210 210 207 200 201
351 352 351 329 321 284 150 306 277 328 46 7 348 346 346 342 338 331 337 340 336 342 352 357 356 257 213 202 204 210 212 208 199 189 192 192 199 208 209 213 209 209 216 214 209 212 207 206 200
352 352 37 304 299 299 298 241 322 151 76 11 2 351 344 344 339 331 335 335 332 336 343 354 357 355 256 209 207 208 209 208 203 199 197 198 200 205 206 214 211 211 213 213 212 212 208 207 211
105 313 349 248 265 278 239 261 191 188 339 359 354 349 351 342 338 331 331 333 335 337 335 345 352 357 357 349 216 212 211 215 216 211 200 196 199 202 201 213 209 212 211 211 208 207 207 206 209
282 73 258 159 295 287 262 286 262 281 342 339 347 343 341 338 335 332 332 334 333 335 331 338 344 353 354 358 1 222 217 210 212 211 205 201 201 200 204 205 209 210 210 210 207 208 209 206 207
209 203 168 246 246 282 301 295 132 335 335 333 335 335 336 334 333 332 332 330 329 329 333 335 337 344 351 353 349 335 227 213 211 211 207 205 203 203 204 202 205 211 211 209 208 207 206 207 208
242 241 182 245 251 242 283 284 127 89 344 339 335 327 331 328 327 329 327 327 330 327 330 331 329 336 341 345 343 343 313 215 208 212 209 207 206 208 206 204 206 209 207 203 205 207 206 206 206